Location: Newark
(48.5797°N, 7.6903°E)
Time: 04:37:01
(UTC+00:00)

ISS - Visible Passes

Search period start: 23 January 2020 00:00
Search period end: 02 February 2020 00:00
Orbit: 415 x 421 km, 51.6° (Epoch: 23 January)

Date Brightness Start Highest point End Pass type
(mag) Time Alt. Az. Time Alt. Az. Time Alt. Az.
23 Jan -3.6 18:12:13 10° SW 18:15:23 61° S 18:15:23 61° S visible
24 Jan -3.1 17:24:23 10° SW 17:27:35 42° SSE 17:29:26 21° E visible
24 Jan -1.2 19:00:59 10° W 19:02:22 22° W 19:02:22 22° W visible
25 Jan -3.8 18:12:53 10° WSW 18:16:14 73° NNW 18:16:22 71° N visible
26 Jan -3.8 17:24:48 10° WSW 17:28:10 85° SSE 17:30:20 21° ENE visible
26 Jan -1.3 19:01:51 10° W 19:03:16 22° WNW 19:03:16 22° WNW visible
27 Jan -3.4 18:13:41 10° W 18:17:00 52° N 18:17:11 51° N visible
28 Jan -3.5 17:25:31 10° W 17:28:52 60° NNW 17:31:05 19° ENE visible
28 Jan -1.3 19:02:38 10° WNW 19:04:01 22° WNW 19:04:01 22° WNW visible
29 Jan -3.3 18:14:29 10° WNW 18:17:46 48° N 18:17:54 47° N visible
30 Jan -3.2 17:26:18 10° W 17:29:35 48° N 17:31:48 18° ENE visible
30 Jan -1.4 19:03:15 10° WNW 19:04:43 23° WNW 19:04:43 23° WNW visible
31 Jan -3.6 18:15:08 10° WNW 18:18:28 57° N 18:18:38 56° NNE visible
01 Feb -3.4 17:27:00 10° WNW 17:30:17 50° N 17:32:35 18° ENE visible
01 Feb -1.6 19:03:49 10° WNW 19:05:31 27° WNW 19:05:31 27° WNW visible
